Time,TemperatureF,DewpointF,PressureIn,WindDirection,WindDirectionDegrees,WindSpeedMPH,WindSpeedGustMPH,Humidity,HourlyPrecipIn,Conditions,Clouds,dailyrainin,SolarRadiationWatts/m^2,SoftwareType,DateUTC
2013-11-16 00:02:00,53.9,47.5,29.67,South,172,13.0,15.0,79,0.00,,,0.00,0,Wunderground v.1.15,2013-11-16 06:02:00,
2013-11-16 00:08:00,53.8,47.8,29.67,South,181,12.0,16.0,80,0.00,,,0.00,0,Wunderground v.1.15,2013-11-16 06:08:00,
2013-11-16 00:14:00,53.8,47.8,29.67,SSE,168,13.0,15.0,80,0.00,,,0.00,0,Wunderground v.1.15,2013-11-16 06:14:00,
2013-11-16 00:20:00,53.8,47.8,29.67,South,173,12.0,12.0,80,0.00,,,0.00,0,Wunderground v.1.15,2013-11-16 06:20:00,
2013-11-16 00:26:00,53.9,47.9,29.67,South,190,11.0,12.0,80,0.00,,,0.00,0,Wunderground v.1.15,2013-11-16 06:26:00,
2013-11-16 00:32:00,54.0,48.3,29.66,SSE,163,12.0,20.0,81,0.00,,,0.00,0,Wunderground v.1.15,2013-11-16 06:32:00,
2013-11-16 00:38:00,54.1,48.4,29.66,South,172,13.0,20.0,81,0.00,,,0.00,0,Wunderground v.1.15,2013-11-16 06:38:00,
2013-11-16 00:44:00,54.1,48.4,29.66,SSE,167,13.0,14.0,81,0.00,,,0.00,0,Wunderground v.1.15,2013-11-16 06:44:00,
2013-11-16 00:50:00,54.3,48.6,29.65,South,171,12.0,13.0,81,0.00,,,0.00,0,Wunderground v.1.15,2013-11-16 06:50:00,
2013-11-16 00:56:00,54.3,48.6,29.65,South,170,12.0,15.0,81,0.00,,,0.00,0,Wunderground v.1.15,2013-11-16 06:56:00,
2013-11-16 01:02:00,54.4,48.7,29.65,SSE,165,12.0,14.0,81,0.00,,,0.00,0,Wunderground v.1.15,2013-11-16 07:02:00,
2013-11-16 01:08:00,54.5,48.8,29.65,SSE,160,12.0,14.0,81,0.00,,,0.00,0,Wunderground v.1.15,2013-11-16 07:08:00,
2013-11-16 01:14:00,54.6,49.2,29.64,South,173,12.0,14.0,82,0.00,,,0.00,0,Wunderground v.1.15,2013-11-16 07:14:00,
2013-11-16 01:20:00,54.7,49.3,29.64,South,177,11.0,14.0,82,0.00,,,0.00,0,Wunderground v.1.15,2013-11-16 07:20:00,
2013-11-16 01:26:00,54.9,49.5,29.64,SSE,164,11.0,14.0,82,0.00,,,0.00,0,Wunderground v.1.15,2013-11-16 07:26:00,
2013-11-16 01:32:00,54.9,49.5,29.63,SSE,165,12.0,12.0,82,0.00,,,0.00,0,Wunderground v.1.15,2013-11-16 07:32:00,
2013-11-16 01:38:00,55.0,49.6,29.63,SSE,153,13.0,18.0,82,0.00,,,0.00,0,Wunderground v.1.15,2013-11-16 07:38:00,
2013-11-16 01:44:00,55.1,49.7,29.63,SSE,158,13.0,20.0,82,0.00,,,0.00,0,Wunderground v.1.15,2013-11-16 07:44:00,
2013-11-16 01:50:00,55.2,49.8,29.63,SSE,168,12.0,12.0,82,0.00,,,0.00,0,Wunderground v.1.15,2013-11-16 07:50:00,
2013-11-16 01:56:00,55.3,50.2,29.63,South,171,12.0,20.0,83,0.00,,,0.00,0,Wunderground v.1.15,2013-11-16 07:56:00,
2013-11-16 02:02:00,55.3,50.2,29.63,South,172,12.0,20.0,83,0.00,,,0.00,0,Wunderground v.1.15,2013-11-16 08:02:00,
2013-11-16 02:08:00,55.4,50.3,29.62,South,169,13.0,20.0,83,0.00,,,0.00,0,Wunderground v.1.15,2013-11-16 08:08:00,
2013-11-16 02:14:00,55.5,50.4,29.62,South,180,14.0,20.0,83,0.00,,,0.00,0,Wunderground v.1.15,2013-11-16 08:14:00,
2013-11-16 02:20:00,55.7,50.6,29.61,South,175,13.0,13.0,83,0.00,,,0.00,0,Wunderground v.1.15,2013-11-16 08:20:00,
2013-11-16 02:26:00,55.9,50.8,29.61,SSE,165,13.0,20.0,83,0.00,,,0.00,0,Wunderground v.1.15,2013-11-16 08:26:00,
2013-11-16 02:32:00,55.9,50.8,29.60,South,170,13.0,20.0,83,0.00,,,0.00,0,Wunderground v.1.15,2013-11-16 08:32:00,
2013-11-16 02:38:00,55.9,50.8,29.60,SSW,193,13.0,20.0,83,0.00,,,0.00,0,Wunderground v.1.15,2013-11-16 08:38:00,
2013-11-16 02:44:00,56.0,50.9,29.60,South,176,13.0,22.0,83,0.00,,,0.00,0,Wunderground v.1.15,2013-11-16 08:44:00,
2013-11-16 02:50:00,56.1,51.0,29.60,South,183,13.0,13.0,83,0.00,,,0.00,0,Wunderground v.1.15,2013-11-16 08:50:00,
2013-11-16 02:56:00,56.1,51.0,29.60,SSE,167,12.0,20.0,83,0.00,,,0.00,0,Wunderground v.1.15,2013-11-16 08:56:00,
2013-11-16 03:02:00,56.1,51.0,29.59,SSE,156,12.0,20.0,83,0.00,,,0.00,0,Wunderground v.1.15,2013-11-16 09:02:00,
2013-11-16 03:08:00,56.1,51.3,29.59,South,182,12.0,20.0,84,0.00,,,0.00,0,Wunderground v.1.15,2013-11-16 09:08:00,
2013-11-16 03:14:00,56.3,51.5,29.59,South,173,13.0,20.0,84,0.00,,,0.00,0,Wunderground v.1.15,2013-11-16 09:14:00,
2013-11-16 03:20:00,56.4,51.6,29.59,SSE,164,13.0,20.0,84,0.00,,,0.00,0,Wunderground v.1.15,2013-11-16 09:20:00,
2013-11-16 03:26:00,56.6,51.5,29.59,South,174,12.0,20.0,83,0.00,,,0.00,0,Wunderground v.1.15,2013-11-16 09:26:00,
2013-11-16 03:32:00,56.6,51.8,29.59,South,185,12.0,13.0,84,0.00,,,0.00,0,Wunderground v.1.15,2013-11-16 09:32:00,
2013-11-16 03:38:00,56.7,51.9,29.59,South,184,12.0,20.0,84,0.00,,,0.00,0,Wunderground v.1.15,2013-11-16 09:38:00,
2013-11-16 03:44:00,56.8,52.0,29.59,South,183,12.0,20.0,84,0.00,,,0.00,0,Wunderground v.1.15,2013-11-16 09:44:00,
2013-11-16 03:50:00,56.9,52.1,29.59,South,179,12.0,12.0,84,0.00,,,0.00,0,Wunderground v.1.15,2013-11-16 09:50:00,
2013-11-16 03:56:00,57.1,52.0,29.59,SSE,168,12.0,20.0,83,0.00,,,0.00,0,Wunderground v.1.15,2013-11-16 09:56:00,
2013-11-16 04:02:00,57.1,52.0,29.59,SSW,199,12.0,12.0,83,0.00,,,0.00,0,Wunderground v.1.15,2013-11-16 10:02:00,
2013-11-16 04:08:00,57.1,52.0,29.59,South,179,11.0,20.0,83,0.00,,,0.00,0,Wunderground v.1.15,2013-11-16 10:08:00,
2013-11-16 04:14:00,57.3,52.2,29.59,South,185,11.0,20.0,83,0.00,,,0.00,0,Wunderground v.1.15,2013-11-16 10:14:00,
2013-11-16 04:20:00,57.3,52.2,29.59,South,175,12.0,12.0,83,0.00,,,0.00,0,Wunderground v.1.15,2013-11-16 10:20:00,
2013-11-16 04:26:00,57.5,52.4,29.59,South,171,11.0,20.0,83,0.00,,,0.00,0,Wunderground v.1.15,2013-11-16 10:26:00,
2013-11-16 04:32:00,57.7,52.6,29.59,South,178,11.0,20.0,83,0.00,,,0.00,0,Wunderground v.1.15,2013-11-16 10:32:00,
2013-11-16 04:38:00,57.9,52.8,29.59,SSE,160,10.0,20.0,83,0.00,,,0.00,0,Wunderground v.1.15,2013-11-16 10:38:00,
2013-11-16 04:44:00,57.9,52.8,29.59,South,187,10.0,12.0,83,0.00,,,0.00,0,Wunderground v.1.15,2013-11-16 10:44:00,
2013-11-16 04:50:00,58.1,52.6,29.59,South,172,11.0,20.0,82,0.00,,,0.00,0,Wunderground v.1.15,2013-11-16 10:50:00,
2013-11-16 04:56:00,58.2,52.7,29.59,South,179,12.0,20.0,82,0.00,,,0.00,0,Wunderground v.1.15,2013-11-16 10:56:00,
2013-11-16 05:02:00,58.2,52.7,29.58,SSW,195,11.0,20.0,82,0.00,,,0.00,0,Wunderground v.1.15,2013-11-16 11:02:00,
2013-11-16 05:08:00,58.2,52.7,29.58,South,187,11.0,20.0,82,0.00,,,0.00,0,Wunderground v.1.15,2013-11-16 11:08:00,
2013-11-16 05:14:00,58.2,52.7,29.57,SSE,166,11.0,20.0,82,0.00,,,0.00,0,Wunderground v.1.15,2013-11-16 11:14:00,
2013-11-16 05:20:00,58.2,52.7,29.58,SSE,159,10.0,20.0,82,0.00,,,0.00,0,Wunderground v.1.15,2013-11-16 11:20:00,
2013-11-16 05:26:00,58.2,52.7,29.58,South,190,10.0,20.0,82,0.00,,,0.00,0,Wunderground v.1.15,2013-11-16 11:26:00,
2013-11-16 05:32:00,58.2,52.7,29.57,South,169,9.0,20.0,82,0.00,,,0.00,0,Wunderground v.1.15,2013-11-16 11:32:00,
2013-11-16 05:38:00,58.2,52.7,29.57,SSE,168,10.0,20.0,82,0.00,,,0.00,0,Wunderground v.1.15,2013-11-16 11:38:00,
2013-11-16 05:44:00,58.3,52.8,29.57,South,188,9.0,20.0,82,0.00,,,0.00,0,Wunderground v.1.15,2013-11-16 11:44:00,
2013-11-16 05:50:00,58.4,52.9,29.57,South,177,9.0,20.0,82,0.00,,,0.00,0,Wunderground v.1.15,2013-11-16 11:50:00,
2013-11-16 05:56:00,58.5,53.0,29.57,South,187,9.0,20.0,82,0.00,,,0.00,0,Wunderground v.1.15,2013-11-16 11:56:00,
2013-11-16 06:02:00,58.6,53.1,29.57,SSW,200,9.0,20.0,82,0.00,,,0.00,0,Wunderground v.1.15,2013-11-16 12:02:00,
2013-11-16 06:08:00,58.6,53.1,29.57,SSW,193,9.0,20.0,82,0.00,,,0.00,0,Wunderground v.1.15,2013-11-16 12:08:00,
2013-11-16 06:14:00,58.7,53.2,29.57,SSW,206,9.0,20.0,82,0.00,,,0.00,0,Wunderground v.1.15,2013-11-16 12:14:00,
2013-11-16 06:20:00,58.7,53.2,29.56,South,178,9.0,9.0,82,0.00,,,0.00,0,Wunderground v.1.15,2013-11-16 12:20:00,
2013-11-16 06:26:00,58.9,53.4,29.56,South,183,9.0,20.0,82,0.00,,,0.00,0,Wunderground v.1.15,2013-11-16 12:26:00,
2013-11-16 06:32:00,59.0,53.2,29.56,South,185,9.0,20.0,81,0.00,,,0.00,0,Wunderground v.1.15,2013-11-16 12:32:00,
2013-11-16 06:38:00,59.0,53.2,29.56,South,182,9.0,20.0,81,0.00,,,0.00,0,Wunderground v.1.15,2013-11-16 12:38:00,
2013-11-16 06:44:00,59.1,52.9,29.56,South,185,9.0,20.0,80,0.00,,,0.00,0,Wunderground v.1.15,2013-11-16 12:44:00,
2013-11-16 06:50:00,59.0,52.8,29.57,South,189,9.0,20.0,80,0.00,,,0.00,0,Wunderground v.1.15,2013-11-16 12:50:00,
2013-11-16 06:56:00,59.0,52.8,29.56,South,189,9.0,20.0,80,0.00,,,0.00,0,Wunderground v.1.15,2013-11-16 12:56:00,
2013-11-16 07:02:00,59.0,52.8,29.56,SSW,197,9.0,10.0,80,0.00,,,0.00,0,Wunderground v.1.15,2013-11-16 13:02:00,
2013-11-16 07:08:00,59.1,52.9,29.56,South,184,9.0,20.0,80,0.00,,,0.00,0,Wunderground v.1.15,2013-11-16 13:08:00,
2013-11-16 07:14:00,59.1,52.6,29.57,South,186,9.0,20.0,79,0.00,,,0.00,0,Wunderground v.1.15,2013-11-16 13:14:00,
2013-11-16 07:22:00,59.0,52.5,29.56,SSE,162,9.0,20.0,79,0.00,,,0.00,5,Wunderground v.1.15,2013-11-16 13:22:00,
2013-11-16 07:28:00,59.0,52.5,29.56,SSE,164,9.0,20.0,79,0.00,,,0.00,11,Wunderground v.1.15,2013-11-16 13:28:00,
2013-11-16 07:34:00,58.9,52.4,29.56,South,178,10.0,20.0,79,0.00,,,0.00,21,Wunderground v.1.15,2013-11-16 13:34:00,
2013-11-16 07:40:00,59.0,52.8,29.56,SSE,164,11.0,20.0,80,0.00,,,0.00,23,Wunderground v.1.15,2013-11-16 13:40:00,
2013-11-16 07:46:00,59.1,52.6,29.56,South,177,11.0,20.0,79,0.00,,,0.00,28,Wunderground v.1.15,2013-11-16 13:46:00,
2013-11-16 07:52:00,59.3,52.8,29.56,South,187,10.0,20.0,79,0.00,,,0.00,40,Wunderground v.1.15,2013-11-16 13:52:00,
2013-11-16 07:58:00,59.5,53.0,29.56,South,181,9.0,20.0,79,0.00,,,0.00,40,Wunderground v.1.15,2013-11-16 13:58:00,
2013-11-16 08:04:00,59.7,52.8,29.56,South,177,10.0,20.0,78,0.00,,,0.00,47,Wunderground v.1.15,2013-11-16 14:04:00,
2013-11-16 08:10:00,59.9,53.0,29.56,South,189,11.0,20.0,78,0.00,,,0.00,54,Wunderground v.1.15,2013-11-16 14:10:00,
2013-11-16 08:16:00,60.1,53.2,29.56,South,172,11.0,20.0,78,0.00,,,0.00,47,Wunderground v.1.15,2013-11-16 14:16:00,
2013-11-16 08:22:00,60.2,53.0,29.56,South,170,12.0,20.0,77,0.00,,,0.00,49,Wunderground v.1.15,2013-11-16 14:22:00,
2013-11-16 08:28:00,60.3,53.1,29.56,SSW,205,12.0,20.0,77,0.00,,,0.00,54,Wunderground v.1.15,2013-11-16 14:28:00,
2013-11-16 08:34:00,60.5,52.9,29.55,South,175,12.0,20.0,76,0.00,,,0.00,62,Wunderground v.1.15,2013-11-16 14:34:00,
2013-11-16 08:40:00,60.7,53.1,29.56,South,177,13.0,20.0,76,0.00,,,0.00,69,Wunderground v.1.15,2013-11-16 14:40:00,
2013-11-16 08:46:00,60.9,53.3,29.55,South,175,12.0,20.0,76,0.00,,,0.00,77,Wunderground v.1.15,2013-11-16 14:46:00,
2013-11-16 08:52:00,61.1,53.1,29.56,South,171,12.0,20.0,75,0.00,,,0.00,86,Wunderground v.1.15,2013-11-16 14:52:00,
2013-11-16 08:58:00,61.3,53.3,29.56,South,176,13.0,20.0,75,0.00,,,0.00,84,Wunderground v.1.15,2013-11-16 14:58:00,
2013-11-16 09:04:00,61.6,53.2,29.56,South,178,14.0,22.0,74,0.00,,,0.00,123,Wunderground v.1.15,2013-11-16 15:04:00,
2013-11-16 09:10:00,62.0,53.6,29.57,South,177,15.0,15.0,74,0.00,,,0.00,105,Wunderground v.1.15,2013-11-16 15:10:00,
2013-11-16 09:16:00,62.2,53.4,29.57,South,185,14.0,20.0,73,0.00,,,0.00,62,Wunderground v.1.15,2013-11-16 15:16:00,
2013-11-16 09:22:00,62.3,53.5,29.56,South,174,14.0,15.0,73,0.00,,,0.00,111,Wunderground v.1.15,2013-11-16 15:22:00,
2013-11-16 09:28:00,62.4,53.3,29.56,SSE,156,15.0,24.0,72,0.00,,,0.00,113,Wunderground v.1.15,2013-11-16 15:28:00,
2013-11-16 09:34:00,62.5,53.3,29.56,SSW,194,16.0,17.0,72,0.00,,,0.00,146,Wunderground v.1.15,2013-11-16 15:34:00,
2013-11-16 09:40:00,64.0,55.2,29.57,SSW,193,14.0,20.0,73,0.00,,,0.00,446,Wunderground v.1.15,2013-11-16 15:40:00,
2013-11-16 09:46:00,64.7,54.3,29.57,SW,217,16.0,27.0,69,0.00,,,0.00,148,Wunderground v.1.15,2013-11-16 15:46:00,
2013-11-16 09:52:00,64.4,54.0,29.57,SSW,195,15.0,20.0,69,0.00,,,0.00,181,Wunderground v.1.15,2013-11-16 15:52:00,
2013-11-16 09:58:00,64.3,54.3,29.57,SSW,193,14.0,23.0,70,0.00,,,0.00,190,Wunderground v.1.15,2013-11-16 15:58:00,
2013-11-16 10:04:00,64.2,54.2,29.57,SSW,197,15.0,20.0,70,0.00,,,0.00,160,Wunderground v.1.15,2013-11-16 16:04:00,
2013-11-16 10:10:00,64.2,54.2,29.57,SSW,193,15.0,20.0,70,0.00,,,0.00,253,Wunderground v.1.15,2013-11-16 16:10:00,
2013-11-16 10:16:00,64.5,54.5,29.57,South,187,15.0,24.0,70,0.00,,,0.00,165,Wunderground v.1.15,2013-11-16 16:16:00,
2013-11-16 10:22:00,64.6,54.6,29.56,SSW,195,15.0,20.0,70,0.00,,,0.00,178,Wunderground v.1.15,2013-11-16 16:22:00,
2013-11-16 10:28:00,64.6,54.6,29.56,SSW,197,14.0,25.0,70,0.00,,,0.00,165,Wunderground v.1.15,2013-11-16 16:28:00,
2013-11-16 10:34:00,64.6,54.2,29.56,SSW,193,13.0,20.0,69,0.00,,,0.00,183,Wunderground v.1.15,2013-11-16 16:34:00,
2013-11-16 10:40:00,64.7,54.3,29.55,South,191,13.0,20.0,69,0.00,,,0.00,160,Wunderground v.1.15,2013-11-16 16:40:00,
2013-11-16 10:46:00,64.7,54.3,29.55,South,189,13.0,20.0,69,0.00,,,0.00,183,Wunderground v.1.15,2013-11-16 16:46:00,
2013-11-16 10:52:00,65.0,54.6,29.55,SSW,200,12.0,20.0,69,0.00,,,0.00,218,Wunderground v.1.15,2013-11-16 16:52:00,
2013-11-16 10:58:00,65.6,55.2,29.55,South,175,13.0,20.0,69,0.00,,,0.00,267,Wunderground v.1.15,2013-11-16 16:58:00,
2013-11-16 11:04:00,67.8,56.0,29.55,South,185,13.0,22.0,66,0.00,,,0.00,603,Wunderground v.1.15,2013-11-16 17:04:00,
2013-11-16 11:10:00,69.2,55.6,29.55,South,172,15.0,15.0,62,0.00,,,0.00,601,Wunderground v.1.15,2013-11-16 17:10:00,
2013-11-16 11:16:00,69.3,55.3,29.55,SSW,199,15.0,20.0,61,0.00,,,0.00,243,Wunderground v.1.15,2013-11-16 17:16:00,
2013-11-16 11:22:00,68.7,55.2,29.54,South,186,13.0,20.0,62,0.00,,,0.00,202,Wunderground v.1.15,2013-11-16 17:22:00,
2013-11-16 11:28:00,68.3,54.8,29.54,SSW,207,14.0,29.0,62,0.00,,,0.00,246,Wunderground v.1.15,2013-11-16 17:28:00,
2013-11-16 11:34:00,68.7,55.2,29.53,South,179,16.0,16.0,62,0.00,,,0.00,671,Wunderground v.1.15,2013-11-16 17:34:00,
2013-11-16 12:08:00,73.1,56.0,29.50,South,191,14.0,14.0,55,0.00,,,0.00,522,Wunderground v.1.15,2013-11-16 18:08:00,
2013-11-16 12:14:00,72.9,55.8,29.50,SSW,193,15.0,27.0,55,0.00,,,0.00,636,Wunderground v.1.15,2013-11-16 18:14:00,
2013-11-16 12:20:00,73.3,55.6,29.50,SSW,199,16.0,22.0,54,0.00,,,0.00,645,Wunderground v.1.15,2013-11-16 18:20:00,
2013-11-16 12:26:00,73.0,55.4,29.50,South,191,15.0,22.0,54,0.00,,,0.00,659,Wunderground v.1.15,2013-11-16 18:26:00,
2013-11-16 12:32:00,73.8,55.6,29.49,SSW,204,14.0,20.0,53,0.00,,,0.00,712,Wunderground v.1.15,2013-11-16 18:32:00,
2013-11-16 12:38:00,73.1,53.9,29.49,SSW,195,15.0,15.0,51,0.00,,,0.00,264,Wunderground v.1.15,2013-11-16 18:38:00,
2013-11-16 12:44:00,72.6,54.0,29.49,SSW,199,16.0,20.0,52,0.00,,,0.00,668,Wunderground v.1.15,2013-11-16 18:44:00,
2013-11-16 12:50:00,73.4,54.2,29.49,SSW,199,17.0,21.0,51,0.00,,,0.00,575,Wunderground v.1.15,2013-11-16 18:50:00,
2013-11-16 12:56:00,74.0,54.2,29.48,South,178,15.0,21.0,50,0.00,,,0.00,199,Wunderground v.1.15,2013-11-16 18:56:00,
2013-11-16 13:02:00,74.8,54.4,29.48,SSW,203,15.0,20.0,49,0.00,,,0.00,554,Wunderground v.1.15,2013-11-16 19:02:00,
2013-11-16 13:08:00,75.1,54.1,29.47,SSW,199,17.0,25.0,48,0.00,,,0.00,533,Wunderground v.1.15,2013-11-16 19:08:00,
2013-11-16 13:14:00,75.5,53.9,29.47,SSW,210,16.0,23.0,47,0.00,,,0.00,526,Wunderground v.1.15,2013-11-16 19:14:00,
2013-11-16 13:20:00,75.5,53.3,29.47,SSW,210,16.0,27.0,46,0.00,,,0.00,522,Wunderground v.1.15,2013-11-16 19:20:00,
2013-11-16 13:26:00,75.8,53.5,29.46,SSW,206,17.0,27.0,46,0.00,,,0.00,519,Wunderground v.1.15,2013-11-16 19:26:00,
2013-11-16 13:32:00,76.1,52.6,29.46,SSW,201,16.0,24.0,44,0.00,,,0.00,508,Wunderground v.1.15,2013-11-16 19:32:00,
2013-11-16 13:38:00,76.4,53.5,29.46,SSW,199,15.0,24.0,45,0.00,,,0.00,473,Wunderground v.1.15,2013-11-16 19:38:00,
2013-11-16 13:44:00,76.1,53.2,29.46,SSW,209,16.0,20.0,45,0.00,,,0.00,62,Wunderground v.1.15,2013-11-16 19:44:00,
2013-11-16 13:50:00,75.8,52.3,29.46,SSW,199,18.0,18.0,44,0.00,,,0.00,58,Wunderground v.1.15,2013-11-16 19:50:00,
2013-11-16 13:56:00,75.9,53.0,29.45,SSW,209,18.0,20.0,45,0.00,,,0.00,56,Wunderground v.1.15,2013-11-16 19:56:00,
2013-11-16 14:02:00,76.1,53.2,29.45,South,184,16.0,20.0,45,0.00,,,0.00,51,Wunderground v.1.15,2013-11-16 20:02:00,
2013-11-16 14:08:00,76.1,52.6,29.45,SSW,203,17.0,24.0,44,0.00,,,0.00,49,Wunderground v.1.15,2013-11-16 20:08:00,
2013-11-16 14:14:00,76.2,52.7,29.44,South,187,17.0,20.0,44,0.00,,,0.00,49,Wunderground v.1.15,2013-11-16 20:14:00,
2013-11-16 14:20:00,76.2,52.1,29.44,SSW,208,17.0,22.0,43,0.00,,,0.00,51,Wunderground v.1.15,2013-11-16 20:20:00,
2013-11-16 14:26:00,76.2,52.7,29.43,SSW,197,17.0,22.0,44,0.00,,,0.00,53,Wunderground v.1.15,2013-11-16 20:26:00,
2013-11-16 14:32:00,76.3,52.2,29.43,SSW,205,15.0,21.0,43,0.00,,,0.00,53,Wunderground v.1.15,2013-11-16 20:32:00,
2013-11-16 14:38:00,76.5,52.3,29.43,SSW,199,15.0,26.0,43,0.00,,,0.00,62,Wunderground v.1.15,2013-11-16 20:38:00,
2013-11-16 14:44:00,76.5,53.0,29.43,South,175,17.0,26.0,44,0.00,,,0.00,62,Wunderground v.1.15,2013-11-16 20:44:00,
2013-11-16 14:50:00,76.4,53.5,29.42,South,189,16.0,16.0,45,0.00,,,0.00,65,Wunderground v.1.15,2013-11-16 20:50:00,
2013-11-16 14:56:00,76.3,53.4,29.42,SSW,192,14.0,20.0,45,0.00,,,0.00,56,Wunderground v.1.15,2013-11-16 20:56:00,
2013-11-16 15:02:00,76.3,53.4,29.42,SSW,197,15.0,20.0,45,0.00,,,0.00,60,Wunderground v.1.15,2013-11-16 21:02:00,
2013-11-16 15:08:00,76.3,52.8,29.43,SSW,204,16.0,20.0,44,0.00,,,0.00,149,Wunderground v.1.15,2013-11-16 21:08:00,
2013-11-16 15:14:00,76.3,54.0,29.43,South,181,17.0,20.0,46,0.00,,,0.00,62,Wunderground v.1.15,2013-11-16 21:14:00,
2013-11-16 15:20:00,75.5,54.4,29.42,South,178,18.0,18.0,48,0.00,,,0.00,86,Wunderground v.1.15,2013-11-16 21:20:00,
2013-11-16 15:26:00,75.2,53.6,29.42,South,185,18.0,20.0,47,0.00,,,0.00,62,Wunderground v.1.15,2013-11-16 21:26:00,
2013-11-16 15:32:00,75.1,53.5,29.42,SSW,206,18.0,21.0,47,0.00,,,0.00,172,Wunderground v.1.15,2013-11-16 21:32:00,
2013-11-16 15:38:00,75.0,54.0,29.42,South,189,18.0,21.0,48,0.00,,,0.00,127,Wunderground v.1.15,2013-11-16 21:38:00,
2013-11-16 15:44:00,74.9,54.4,29.43,South,189,16.0,20.0,49,0.00,,,0.00,248,Wunderground v.1.15,2013-11-16 21:44:00,
2013-11-16 15:50:00,74.8,53.8,29.43,SSW,194,15.0,15.0,48,0.00,,,0.00,86,Wunderground v.1.15,2013-11-16 21:50:00,
2013-11-16 15:56:00,74.6,53.6,29.43,SSW,192,14.0,20.0,48,0.00,,,0.00,51,Wunderground v.1.15,2013-11-16 21:56:00,
2013-11-16 16:02:00,74.5,53.5,29.43,South,177,16.0,16.0,48,0.00,,,0.00,46,Wunderground v.1.15,2013-11-16 22:02:00,
2013-11-16 16:08:00,74.4,52.9,29.43,South,178,14.0,20.0,47,0.00,,,0.00,42,Wunderground v.1.15,2013-11-16 22:08:00,
2013-11-16 16:14:00,74.4,52.9,29.43,South,191,14.0,20.0,47,0.00,,,0.00,39,Wunderground v.1.15,2013-11-16 22:14:00,
2013-11-16 16:20:00,74.3,52.8,29.42,South,173,13.0,20.0,47,0.00,,,0.00,47,Wunderground v.1.15,2013-11-16 22:20:00,
2013-11-16 16:26:00,74.1,52.6,29.43,South,183,12.0,20.0,47,0.00,,,0.00,54,Wunderground v.1.15,2013-11-16 22:26:00,
2013-11-16 16:32:00,74.0,52.5,29.42,SSW,195,11.0,20.0,47,0.00,,,0.00,35,Wunderground v.1.15,2013-11-16 22:32:00,
2013-11-16 16:38:00,73.9,52.4,29.42,South,191,11.0,20.0,47,0.00,,,0.00,33,Wunderground v.1.15,2013-11-16 22:38:00,
2013-11-16 16:44:00,73.6,52.7,29.43,South,184,11.0,20.0,48,0.00,,,0.00,28,Wunderground v.1.15,2013-11-16 22:44:00,
2013-11-16 16:50:00,73.2,54.0,29.43,SSE,164,11.0,11.0,51,0.00,,,0.00,25,Wunderground v.1.15,2013-11-16 22:50:00,
2013-11-16 16:56:00,72.8,54.1,29.43,South,182,10.0,20.0,52,0.00,,,0.00,23,Wunderground v.1.15,2013-11-16 22:56:00,
2013-11-16 17:02:00,72.3,54.2,29.43,SSW,193,10.0,20.0,53,0.00,,,0.00,19,Wunderground v.1.15,2013-11-16 23:02:00,
2013-11-16 17:08:00,71.9,54.3,29.43,SSW,204,10.0,20.0,54,0.00,,,0.00,11,Wunderground v.1.15,2013-11-16 23:08:00,
2013-11-16 17:16:00,71.3,54.3,29.43,SSW,210,9.0,20.0,55,0.00,,,0.00,5,Wunderground v.1.15,2013-11-16 23:16:00,
2013-11-16 17:22:00,70.9,54.4,29.43,South,181,9.0,20.0,56,0.00,,,0.00,0,Wunderground v.1.15,2013-11-16 23:22:00,
2013-11-16 17:28:00,70.5,54.5,29.43,South,179,9.0,20.0,57,0.00,,,0.00,0,Wunderground v.1.15,2013-11-16 23:28:00,
2013-11-16 17:34:00,70.1,54.2,29.43,South,181,9.0,20.0,57,0.00,,,0.00,0,Wunderground v.1.15,2013-11-16 23:34:00,
2013-11-16 17:40:00,69.9,54.4,29.43,SW,214,9.0,20.0,58,0.00,,,0.00,0,Wunderground v.1.15,2013-11-16 23:40:00,
2013-11-16 17:46:00,69.8,54.4,29.43,SW,218,9.0,20.0,58,0.00,,,0.00,0,Wunderground v.1.15,2013-11-16 23:46:00,
2013-11-16 17:52:00,69.6,54.6,29.44,SSE,166,9.0,20.0,59,0.00,,,0.00,0,Wunderground v.1.15,2013-11-16 23:52:00,
2013-11-16 17:58:00,69.5,54.5,29.44,South,189,10.0,20.0,59,0.00,,,0.00,0,Wunderground v.1.15,2013-11-16 23:58:00,
2013-11-16 18:04:00,69.7,54.7,29.44,South,191,10.0,20.0,59,0.00,,,0.00,0,Wunderground v.1.15,2013-11-17 00:04:00,
2013-11-16 18:10:00,69.9,54.9,29.44,SSW,198,11.0,11.0,59,0.00,,,0.00,0,Wunderground v.1.15,2013-11-17 00:10:00,
2013-11-16 18:16:00,69.9,54.9,29.44,SSW,202,12.0,20.0,59,0.00,,,0.00,0,Wunderground v.1.15,2013-11-17 00:16:00,
2013-11-16 18:22:00,69.8,54.8,29.45,SSW,196,11.0,14.0,59,0.00,,,0.00,0,Wunderground v.1.15,2013-11-17 00:22:00,
2013-11-16 18:28:00,69.7,54.7,29.45,South,185,12.0,20.0,59,0.00,,,0.00,0,Wunderground v.1.15,2013-11-17 00:28:00,
2013-11-16 18:34:00,69.6,54.6,29.45,South,169,13.0,20.0,59,0.00,,,0.00,0,Wunderground v.1.15,2013-11-17 00:34:00,
2013-11-16 18:40:00,69.7,54.3,29.45,South,183,14.0,20.0,58,0.00,,,0.00,0,Wunderground v.1.15,2013-11-17 00:40:00,
2013-11-16 18:46:00,69.7,54.3,29.45,South,189,12.0,20.0,58,0.00,,,0.00,0,Wunderground v.1.15,2013-11-17 00:46:00,
2013-11-16 18:52:00,69.5,54.5,29.45,SSW,196,12.0,20.0,59,0.00,,,0.00,0,Wunderground v.1.15,2013-11-17 00:52:00,
2013-11-16 18:58:00,69.1,54.6,29.45,South,180,10.0,20.0,60,0.00,,,0.00,0,Wunderground v.1.15,2013-11-17 00:58:00,
2013-11-16 19:04:00,68.7,54.7,29.46,South,181,10.0,20.0,61,0.00,,,0.00,0,Wunderground v.1.15,2013-11-17 01:04:00,
2013-11-16 19:10:00,68.3,54.3,29.46,South,190,10.0,10.0,61,0.00,,,0.00,0,Wunderground v.1.15,2013-11-17 01:10:00,
2013-11-16 19:16:00,68.1,54.6,29.46,South,182,11.0,20.0,62,0.00,,,0.00,0,Wunderground v.1.15,2013-11-17 01:16:00,
2013-11-16 19:22:00,67.9,54.4,29.46,South,187,11.0,20.0,62,0.00,,,0.00,0,Wunderground v.1.15,2013-11-17 01:22:00,
2013-11-16 19:28:00,67.8,54.3,29.46,SSW,197,10.0,20.0,62,0.00,,,0.00,0,Wunderground v.1.15,2013-11-17 01:28:00,
2013-11-16 19:34:00,67.7,54.6,29.46,South,191,11.0,20.0,63,0.00,,,0.00,0,Wunderground v.1.15,2013-11-17 01:34:00,
2013-11-16 19:40:00,67.7,54.6,29.46,South,175,12.0,12.0,63,0.00,,,0.00,0,Wunderground v.1.15,2013-11-17 01:40:00,
2013-11-16 19:46:00,67.6,54.6,29.46,South,179,11.0,20.0,63,0.00,,,0.00,0,Wunderground v.1.15,2013-11-17 01:46:00,
2013-11-16 19:52:00,67.6,54.6,29.46,SSE,154,11.0,20.0,63,0.00,,,0.00,0,Wunderground v.1.15,2013-11-17 01:52:00,
2013-11-16 19:58:00,67.5,54.5,29.45,South,175,11.0,20.0,63,0.00,,,0.00,0,Wunderground v.1.15,2013-11-17 01:58:00,
2013-11-16 20:04:00,67.3,54.7,29.46,SSE,159,10.0,20.0,64,0.00,,,0.00,0,Wunderground v.1.15,2013-11-17 02:04:00,
2013-11-16 20:10:00,66.9,54.7,29.46,South,179,10.0,10.0,65,0.00,,,0.00,0,Wunderground v.1.15,2013-11-17 02:10:00,
2013-11-16 20:16:00,66.5,54.8,29.46,South,172,11.0,20.0,66,0.00,,,0.00,0,Wunderground v.1.15,2013-11-17 02:16:00,
2013-11-16 20:22:00,66.3,55.0,29.46,South,184,10.0,20.0,67,0.00,,,0.00,0,Wunderground v.1.15,2013-11-17 02:22:00,
2013-11-16 20:28:00,66.3,55.0,29.45,South,178,11.0,20.0,67,0.00,,,0.00,0,Wunderground v.1.15,2013-11-17 02:28:00,
2013-11-16 20:34:00,66.3,55.4,29.46,South,191,12.0,20.0,68,0.00,,,0.00,0,Wunderground v.1.15,2013-11-17 02:34:00,
2013-11-16 20:40:00,66.4,55.5,29.45,South,181,12.0,20.0,68,0.00,,,0.00,0,Wunderground v.1.15,2013-11-17 02:40:00,
2013-11-16 20:46:00,66.3,55.4,29.45,South,183,11.0,20.0,68,0.00,,,0.00,0,Wunderground v.1.15,2013-11-17 02:46:00,
2013-11-16 20:52:00,66.1,55.2,29.45,South,177,10.0,20.0,68,0.00,,,0.00,0,Wunderground v.1.15,2013-11-17 02:52:00,
2013-11-16 20:58:00,65.9,55.4,29.45,South,177,10.0,20.0,69,0.00,,,0.00,0,Wunderground v.1.15,2013-11-17 02:58:00,
2013-11-16 21:04:00,65.9,55.4,29.45,South,188,11.0,20.0,69,0.00,,,0.00,0,Wunderground v.1.15,2013-11-17 03:04:00,
2013-11-16 21:10:00,65.9,55.8,29.45,South,181,11.0,20.0,70,0.00,,,0.00,0,Wunderground v.1.15,2013-11-17 03:10:00,
2013-11-16 21:16:00,65.9,55.8,29.45,SSE,164,12.0,20.0,70,0.00,,,0.00,0,Wunderground v.1.15,2013-11-17 03:16:00,
2013-11-16 21:22:00,65.8,55.7,29.44,South,181,12.0,13.0,70,0.00,,,0.00,0,Wunderground v.1.15,2013-11-17 03:22:00,
2013-11-16 21:28:00,65.9,55.8,29.44,South,181,12.0,20.0,70,0.00,,,0.00,0,Wunderground v.1.15,2013-11-17 03:28:00,
2013-11-16 21:34:00,65.8,55.7,29.45,SSE,168,12.0,20.0,70,0.00,,,0.00,0,Wunderground v.1.15,2013-11-17 03:34:00,
2013-11-16 21:40:00,65.7,55.6,29.44,South,171,12.0,20.0,70,0.00,,,0.00,0,Wunderground v.1.15,2013-11-17 03:40:00,
2013-11-16 21:46:00,65.5,55.5,29.45,South,169,12.0,20.0,70,0.00,,,0.00,0,Wunderground v.1.15,2013-11-17 03:46:00,
2013-11-16 21:52:00,65.4,55.7,29.44,South,187,11.0,20.0,71,0.00,,,0.00,0,Wunderground v.1.15,2013-11-17 03:52:00,
2013-11-16 22:00:00,65.0,55.4,29.44,South,186,11.0,20.0,71,0.00,,,0.00,0,Wunderground v.1.15,2013-11-17 04:00:00,
2013-11-16 22:06:00,64.8,55.2,29.45,SSW,200,11.0,20.0,71,0.00,,,0.00,0,Wunderground v.1.15,2013-11-17 04:06:00,
2013-11-16 22:12:00,64.7,55.5,29.45,SSW,207,11.0,20.0,72,0.00,,,0.00,0,Wunderground v.1.15,2013-11-17 04:12:00,
2013-11-16 22:18:00,64.5,55.3,29.44,South,174,10.0,20.0,72,0.00,,,0.00,0,Wunderground v.1.15,2013-11-17 04:18:00,
2013-11-16 22:24:00,64.3,55.1,29.44,South,182,11.0,20.0,72,0.00,,,0.00,0,Wunderground v.1.15,2013-11-17 04:24:00,
2013-11-16 22:30:00,64.3,55.1,29.44,SSW,192,11.0,11.0,72,0.00,,,0.00,0,Wunderground v.1.15,2013-11-17 04:30:00,
2013-11-16 22:36:00,64.3,55.1,29.44,SSW,193,11.0,20.0,72,0.00,,,0.00,0,Wunderground v.1.15,2013-11-17 04:36:00,
2013-11-16 22:42:00,64.3,55.1,29.44,South,189,11.0,20.0,72,0.00,,,0.00,0,Wunderground v.1.15,2013-11-17 04:42:00,
2013-11-16 22:48:00,64.3,55.1,29.44,SSW,201,10.0,20.0,72,0.00,,,0.00,0,Wunderground v.1.15,2013-11-17 04:48:00,
2013-11-16 22:54:00,64.3,55.1,29.44,SSW,196,10.0,20.0,72,0.00,,,0.00,0,Wunderground v.1.15,2013-11-17 04:54:00,
2013-11-16 23:00:00,64.2,54.6,29.44,South,190,11.0,20.0,71,0.00,,,0.00,0,Wunderground v.1.15,2013-11-17 05:00:00,
2013-11-16 23:02:00,64.2,54.2,29.44,SSW,204,11.0,20.0,70,0.00,,,0.00,0,Wunderground v.1.15,2013-11-17 05:02:00,
2013-11-16 23:04:00,64.2,54.2,29.44,SSW,192,11.0,20.0,70,0.00,,,0.00,0,Wunderground v.1.15,2013-11-17 05:04:00,
2013-11-16 23:12:00,64.2,53.8,29.44,SSW,203,12.0,20.0,69,0.00,,,0.00,0,Wunderground v.1.15,2013-11-17 05:12:00,
2013-11-16 23:18:00,64.3,53.5,29.44,South,188,12.0,20.0,68,0.00,,,0.00,0,Wunderground v.1.15,2013-11-17 05:18:00,
2013-11-16 23:20:00,64.3,53.5,29.44,SSW,210,11.0,11.0,68,0.00,,,0.00,0,Wunderground v.1.15,2013-11-17 05:20:00,
2013-11-16 23:26:00,64.3,53.1,29.44,SSW,195,11.0,20.0,67,0.00,,,0.00,0,Wunderground v.1.15,2013-11-17 05:26:00,
2013-11-16 23:32:00,64.2,52.6,29.44,SSW,197,11.0,20.0,66,0.00,,,0.00,0,Wunderground v.1.15,2013-11-17 05:32:00,
2013-11-16 23:34:00,64.2,52.6,29.44,SSW,212,12.0,20.0,66,0.00,,,0.00,0,Wunderground v.1.15,2013-11-17 05:34:00,
2013-11-16 23:36:00,64.2,52.2,29.44,SW,216,11.0,20.0,65,0.00,,,0.00,0,Wunderground v.1.15,2013-11-17 05:36:00,
2013-11-16 23:42:00,64.0,51.1,29.44,South,172,11.0,20.0,63,0.00,,,0.00,0,Wunderground v.1.15,2013-11-17 05:42:00,
2013-11-16 23:48:00,64.0,51.1,29.44,SSW,202,10.0,20.0,63,0.00,,,0.00,0,Wunderground v.1.15,2013-11-17 05:48:00,
2013-11-16 23:54:00,63.8,50.5,29.44,SSW,205,10.0,20.0,62,0.00,,,0.00,0,Wunderground v.1.15,2013-11-17 05:54:00,